Regional Weather Roundup
Issued by NWS

Home | Current Version | Previous Version | Text Only | Print | Product List | Glossary Off
Versions: 1 2 3 4 5 6 7 8 9 10 11 12 13 14 15 16 17 18 19 20 21 22 23 24 25 26 27 28 29 30 31 32 33 34 35 36 37 38 39 40 41 42 43 44 45 46 47 48 49 50

000
ASUS43 KLOT 041612
RWRIL

ILLINOIS REGIONAL WEATHER ROUNDUP
NATIONAL WEATHER SERVICE CHICAGO/ROMEOVILLE IL
1100 AM CDT MON MAY 04 2015

NOTE: "FAIR" INDICATES FEW OR NO CLOUDS BELOW 12,000 FEET WITH NO
SIGNIFICANT WEATHER AND/OR OBSTRUCTIONS TO VISIBILITY.

* THESE STATIONS ARE NOT UNDER NWS QUALITY CONTROL. THEY ALSO MAY NOT
  REPORT WEATHER SUCH AS PRECIPITATION OR FOG.

ILZ001-002-007-009-015-016-024-041700-
NORTHWEST ILLINOIS

CITY           SKY/WX    TMP DP  RH WIND       PRES   REMARKS
MOLINE         PTSUNNY   71  60  68 VRB3      30.08R
STERLING*      PTSUNNY   68  63  83 N7        30.10R
SAVANNA*       PTSUNNY   66  59  76 NE3       30.11R
$$

ILZ003-004-008-010-011-017-018-041700-
NORTH CENTRAL ILLINOIS

CITY           SKY/WX    TMP DP  RH WIND       PRES   REMARKS
ROCKFORD       CLOUDY    67  57  70 N6        30.11R
FREEPORT*      PTSUNNY   64  58  82 N5        30.13R
ROCHELLE*      CLOUDY    65  60  85 N6        30.11R
DE KALB*       CLOUDY    65  59  81 W8        30.11R
PERU*          PTSUNNY   66  60  81 N3        30.10R
$$

ILZ005-006-012>014-019>023-041700-
NORTHEAST ILLINOIS

CITY           SKY/WX    TMP DP  RH WIND       PRES   REMARKS
CHICAGO-OHARE  CLOUDY    68  58  70 W12       30.09R
CHICAGO-MIDWAY CLOUDY    71  59  65 W7        30.09R
AURORA         PTSUNNY   69  59  70 W6        30.10R
LANSING*       CLOUDY    67  58  74 SW5       30.10R
JOLIET*        CLOUDY    69  61  75 CALM      30.10R
WAUKEGAN       CLOUDY    68  58  70 VRB6      30.08R
DUPAGE AIRPORT CLOUDY    68  60  75 W10       30.10R
KANKAKEE*      CLOUDY    64  61  89 SW8       30.12R
WHEELING       CLOUDY    69  57  65 NW10      30.10R
MORRIS*        PTSUNNY   67  61  78 W3        30.08R
ROMEOVILLE*    CLOUDY    68  59  72 SW7       30.10R
NORTHERLY ISL    N/A     68  56  65 W8          N/A
$$

LMZ740>746-041700-
SOUTHERN LAKE MICHIGAN

STATION/POSITION SKY/WX   TEMP    WIND        PRES    VSBY  WAVE
                          AIR SEA DIR/SP/G                  HT/PER
                          (F)     (DEG/KT/KT) (MB)    (MI)  (FT/S)
HARRISON CRIB              65     260/ 12/ 15   N/A
BURNHAM HARBOR             69     250/  6/ 12   N/A
CALUMET HARBOR             68     230/  3/  5   N/A
BURNS HARBOR               58     280/  5/  6 1019.0R
MICHIGAN CITY              62     230/ 12/ 12   N/A
MICHIGAN CITY 6N           55 49  240/  6/  6   N/A           1
ST. JOSEPH                 52 48  250/  6/  6   N/A           1/ 3
$$

ILZ025>027-034>036-040-047-049-050-058-095>099-041700-
WEST-CENTRAL ILLINOIS

CITY           SKY/WX    TMP DP  RH WIND       PRES   REMARKS
QUINCY         PTSUNNY   73  58  59 W12       30.08R
GALESBURG*     DRIZZLE   65  62  90 S7        30.08R
MACOMB*        LGT RAIN  66  63  87 S10       30.10R
JACKSONVILLE*  CLOUDY    78  59  50 SW12      30.09R
PITTSFIELD*    CLOUDY    76  58  54 SW9       30.10R
$$

ILZ028>032-037-038-041>044-048-051>054-059>061-041700-
CENTRAL ILLINOIS

CITY           SKY/WX    TMP DP  RH WIND       PRES   REMARKS
PONTIAC        CLOUDY    68  63  84 SW7       30.11R
BLOOMINGTON    LGT RAIN  69  64  84 SW13      30.08R
DECATUR        CLOUDY    73  62  68 SW10      30.10S
PEORIA         LGT RAIN  67  62  84 SW8       30.08R
LACON*         CLOUDY    67  62  83 W6        30.09R
LINCOLN*       CLOUDY    73  62  68 SW9       30.07R
SPRINGFIELD    CLOUDY    76  60  57 SW12      30.09R
TAYLORVILLE    CLOUDY    73  59  60 SW12      30.11R
$$

ILZ033-039-045-046-055>057-062-063-041700-
EAST-CENTRAL ILLINOIS

CITY           SKY/WX    TMP DP  RH WIND       PRES   REMARKS
CHAMPAIGN      CLOUDY    70  62  76 SW16      30.11R
DANVILLE*      CLOUDY    63  59  87 S10       30.10S
RANTOUL*       CLOUDY    69  63  81 S15       30.10R
MATTOON        CLOUDY    69  60  73 S10       30.12S
PARIS*         CLOUDY    69  60  73 S10       30.14S
$$

ILZ079-100>102-041700-
SOUTHWEST ILLINOIS

CITY           SKY/WX    TMP DP  RH WIND       PRES   REMARKS
ALTON          PTSUNNY   75 N/A N/A S10       30.12
BELLEVILLE     CLOUDY    76  62  62 VRB6      30.11F
CAHOKIA*       PTSUNNY   77  60  55 SW10      30.12S
SPARTA*        PTSUNNY   74  59  59 SW5       30.16S
$$

ILZ064>066-069>071-074>076-080>082-084>086-088>090-092>094-041700-
SOUTH-CENTRAL ILLINOIS

CITY           SKY/WX    TMP DP  RH WIND       PRES   REMARKS
CARBONDALE     PTSUNNY   77  60  55 SW9       30.17R
CAIRO*         MOSUNNY   78  59  52 SW10G16   30.19R HX  80
EFFINGHAM*     CLOUDY    72  56  57 S6        30.16S
MARION         PTSUNNY   77  61  57 SW9       30.18S
MT. VERNON     MOSUNNY  N/A N/A N/A SW8       30.18R
CENTRALIA*     PTSUNNY   83  55  38 SW8       30.15S HX  82
SALEM*         PTSUNNY   77  55  47 W7        30.15S
METROPOLIS*    MOSUNNY   77  60  55 SW7       30.19S
$$

ILZ067-068-072-073-078-083-087-091-041700-
SOUTHEAST ILLINOIS

CITY           SKY/WX    TMP DP  RH WIND       PRES   REMARKS
LAWRENCEVILLE  PTSUNNY   76  56  49 SW3       30.16S
FLORA*         PTSUNNY   76  56  50 SW6       30.16S
FAIRFIELD*     PTSUNNY   76  56  49 SW6       30.16R
HARRISBURG*    MOSUNNY   78  58  49 SW9       30.18S
ROBINSON*      PTSUNNY   75  54  47 SW5       30.16F
CARMI*         MOSUNNY   79  53  40 SW6G16    30.17R
$$

ABBREVIATIONS USED IN REMARKS
   TC - TEMPERATURE IN CELSIUS
  WCI - WIND CHILL INDEX
   HX - HEAT INDEX
  VSB - VISIBILITY
$$



USA.gov is the U.S. government's official web portal to all federal, state and local government web resources and services.